Change the Weather History Date:

Sunday, October 2, 2011

  Actual Average (KYNG) Record (KYNG)
Temperature  
Mean Temperature 44 °F 56 °F  
Max Temperature 46 °F 66 °F 85 °F (1937)
Min Temperature 42 °F 46 °F 30 °F (1958)
Degree Days  
Heating Degree Days 21 10  
Month to date heating degree days 20  
Since 1 July heating degree days 203  
Cooling Degree Days 0 1  
Month to date cooling degree days 2  
Year to date cooling degree days 540  
Moisture  
Dew Point 40 °F    
Average Humidity 85    
Maximum Humidity 93    
Minimum Humidity 61    
Precipitation  
Precipitation 0.51 in 0.10 in 1.59 in (1969)
Month to date precipitation 0.20  
Year to date precipitation 30.17  
Snow  
Snow 0.00 in 0.00 in - ()
Month to date snowfall 0.0  
Since 1 July snowfall 0.0  
Since 1 September snowfall 0.0  
Snow Depth -    
Sea Level Pressure  
Sea Level Pressure 29.99 in    
Wind  
Wind Speed 7 mph (North)    
Max Wind Speed 13 mph    
Max Gust Speed 22 mph    
Visibility 7 miles    
Events Rain    
T = Trace of Precipitation, MM = Missing Value Source: NWS Daily Summary

Daily Weather History Graph

Daily Weather History Graph

Search for Another Location

Airport or City:

Trip Planner

Search our weather history database for the weather conditions in past years. The results will help you decide how hot, cold, wet, or windy it might be!

Date:

Astronomy

Oct. 02, 2011 Rise Set
Actual Time 7:20 AM EDT 7:03 PM EDT
Civil Twilight 6:52 AM EDT 7:30 PM EDT
Nautical Twilight 6:20 AM EDT 8:03 PM EDT
Astronomical Twilight 5:47 AM EDT 8:35 PM EDT
Moon 1:30 PM EDT (10/2) 10:55 PM EDT (10/2)
Length of Visible Light 12h 38m
Length of Day
11h 42m
Waxing Crescent, 34% of the Moon is Illuminated
Oct 2
Waxing Crescent
Oct 3
First Quarter
Oct 11
Full
Oct 19
Last Quarter
Oct 26
New

Hourly Weather History & Observations

Time (EDT) Temp. Windchill Dew Point Humidity Pressure Visibility Wind Dir Wind Speed Gust Speed Precip Events Conditions
12:53 AM 46.0 °F 41.4 °F 33.1 °F 61% 30.04 in 10.0 mi North 9.2 mph - N/A   Scattered Clouds
1:53 AM 45.0 °F 41.2 °F 34.0 °F 65% 30.03 in 10.0 mi North 6.9 mph - N/A   Clear
2:53 AM 45.0 °F 41.8 °F 34.0 °F 65% 30.03 in 10.0 mi North 5.8 mph - N/A   Mostly Cloudy
3:53 AM 44.1 °F 39.5 °F 34.0 °F 68% 30.01 in 10.0 mi North 8.1 mph - N/A   Mostly Cloudy
4:53 AM 45.0 °F 41.2 °F 35.1 °F 68% 30.01 in 10.0 mi North 6.9 mph - N/A   Overcast
5:53 AM 44.1 °F 40.1 °F 35.1 °F 71% 30.02 in 10.0 mi North 6.9 mph - N/A   Overcast
6:53 AM 44.1 °F 38.6 °F 34.0 °F 68% 30.01 in 10.0 mi North 10.4 mph 18.4 mph N/A   Overcast
7:28 AM 44.6 °F 38.4 °F 33.8 °F 66% 30.00 in 10.0 mi North 12.7 mph 21.9 mph N/A   Overcast
7:53 AM 44.1 °F 39.0 °F 34.0 °F 68% 30.02 in 10.0 mi North 9.2 mph 21.9 mph N/A   Overcast
8:18 AM 42.8 °F 37.0 °F 35.6 °F 76% 30.01 in 9.0 mi North 10.4 mph 21.9 mph 0.03 in Rain Light Rain
8:53 AM 42.1 °F 35.7 °F 37.9 °F 85% 30.01 in 10.0 mi NNW 11.5 mph 17.3 mph 0.08 in Rain Light Rain
12:39 PM 44.6 °F 42.2 °F 41.0 °F 87% 29.98 in 3.0 mi North 4.6 mph - 0.01 in Rain Light Rain
12:48 PM 44.6 °F 40.7 °F 41.0 °F 87% 29.98 in 3.0 mi North 6.9 mph - 0.01 in   Overcast
12:53 PM 44.1 °F 40.8 °F 41.0 °F 89% 29.99 in 2.5 mi North 5.8 mph - 0.01 in Rain Light Rain
1:11 PM 44.6 °F 40.7 °F 41.0 °F 87% 29.97 in 2.5 mi North 6.9 mph - 0.01 in Rain Light Rain
1:24 PM 44.6 °F 40.2 °F 42.8 °F 93% 29.96 in 4.0 mi North 8.1 mph - 0.01 in   Overcast
1:36 PM 44.6 °F 40.7 °F 42.8 °F 93% 29.97 in 2.0 mi North 6.9 mph - 0.02 in Rain Light Rain
1:42 PM 44.6 °F 42.2 °F 42.8 °F 93% 29.96 in 2.5 mi North 4.6 mph - 0.02 in Rain Light Rain
1:48 PM 44.6 °F 40.7 °F 42.8 °F 93% 29.96 in 3.0 mi NNW 6.9 mph - 0.03 in Rain Rain
2:02 PM 44.6 °F 40.2 °F 41.0 °F 87% 29.95 in 3.0 mi North 8.1 mph - 0.00 in Rain Light Rain
2:34 PM 44.6 °F 41.4 °F 41.0 °F 87% 29.95 in 6.0 mi North 5.8 mph - 0.03 in Rain Light Rain
2:53 PM 44.1 °F 40.1 °F 41.0 °F 89% 29.97 in 2.5 mi North 6.9 mph - 0.06 in Rain Rain
3:11 PM 44.6 °F 40.7 °F 41.0 °F 87% 29.95 in 4.0 mi Variable 6.9 mph - 0.04 in Rain Rain
3:32 PM 42.8 °F 39.3 °F 41.0 °F 93% 29.95 in 3.0 mi North 5.8 mph - 0.09 in Rain Rain
3:53 PM 43.0 °F 40.3 °F 41.0 °F 93% 29.97 in 3.0 mi North 4.6 mph - 0.14 in Rain Heavy Rain
3:59 PM 42.8 °F 41.1 °F 41.0 °F 93% 29.96 in 2.5 mi NNE 3.5 mph - 0.02 in Rain Rain
4:07 PM 42.8 °F 39.3 °F 39.2 °F 87% 29.97 in 3.0 mi North 5.8 mph 19.6 mph 0.06 in Rain Heavy Rain
4:26 PM 42.8 °F 38.0 °F 37.4 °F 81% 29.97 in 4.0 mi North 8.1 mph - 0.12 in Rain Rain
4:53 PM 42.1 °F 37.7 °F 39.9 °F 92% 29.98 in 8.0 mi NW 6.9 mph - 0.14 in Rain Light Rain
5:08 PM 42.8 °F 40.1 °F 39.2 °F 87% 29.96 in 2.5 mi NW 4.6 mph - 0.03 in Rain Rain
5:16 PM 42.8 °F 41.1 °F 39.2 °F 87% 29.96 in 3.0 mi WNW 3.5 mph - 0.04 in Rain Light Rain
5:24 PM 42.8 °F - 39.2 °F 87% 29.96 in 10.0 mi Calm Calm - 0.04 in   Overcast
5:39 PM 42.8 °F - 39.2 °F 87% 29.97 in 7.0 mi Calm Calm - 0.04 in Rain Light Rain
5:53 PM 43.0 °F - 39.9 °F 89% 29.99 in 3.0 mi Calm Calm - 0.05 in Rain Light Rain
6:13 PM 42.8 °F - 41.0 °F 93% 29.98 in 10.0 mi Calm Calm - 0.00 in   Overcast
6:53 PM 44.1 °F - 41.0 °F 89% 30.00 in 10.0 mi Calm Calm - 0.00 in   Overcast
7:53 PM 44.1 °F - 42.1 °F 93% 30.01 in 10.0 mi Calm Calm - N/A   Overcast
8:42 PM 44.6 °F 41.4 °F 42.8 °F 93% 30.01 in 5.0 mi North 5.8 mph - 0.01 in Rain Light Rain
8:53 PM 45.0 °F 41.2 °F 43.0 °F 93% 30.03 in 5.0 mi North 6.9 mph - 0.01 in Rain Light Rain
9:45 PM 46.4 °F 45.2 °F 44.6 °F 93% 30.02 in 7.0 mi North 3.5 mph - 0.02 in Rain Light Rain
9:53 PM 46.9 °F - 44.1 °F 90% 30.03 in 10.0 mi North 3.5 mph - 0.02 in   Overcast
10:49 PM 46.4 °F 45.2 °F 44.6 °F 93% 30.01 in 10.0 mi North 3.5 mph - N/A   Overcast
10:53 PM 46.9 °F - 45.0 °F 93% 30.02 in 10.0 mi North 3.5 mph - N/A   Overcast
11:14 PM 46.4 °F - 44.6 °F 93% 30.00 in 10.0 mi Calm Calm - N/A   Overcast
11:43 PM 46.4 °F 44.3 °F 44.6 °F 93% 30.00 in 10.0 mi NW 4.6 mph - N/A   Overcast
11:53 PM 46.9 °F - 45.0 °F 93% 30.01 in 10.0 mi NW 3.5 mph - N/A   Overcast